Weather History for Blue Canyon, CA

Change the Weather History Date:

Tuesday, March 5, 2013

  Actual Average Record
Temperature  
Mean Temperature 38 °F -  
Max Temperature 42 °F 45 °F 64 °F (1972)
Min Temperature 33 °F 31 °F 11 °F (1956)
Degree Days  
Heating Degree Days 28    
Moisture  
Dew Point 34 °F    
Average Humidity 86    
Maximum Humidity 93    
Minimum Humidity 70    
Precipitation  
Precipitation 0.00 in - - ()
Sea Level Pressure  
Sea Level Pressure 29.90 in    
Wind  
Wind Speed 12 mph (South)    
Max Wind Speed 22 mph    
Max Gust Speed 32 mph    
Visibility 9 miles    
Events Snow    
Averages and records for this station are not official NWS values.
T = Trace of Precipitation, MM = Missing Value Source: NWS Daily Summary

Daily Weather History Graph

Daily Weather History Graph

Search for Another Location

Airport:

Trip Planner

Search our weather history database for the weather conditions in past years. The results will help you decide how hot, cold, wet, or windy it might be!

Date:

Astronomy

Mar. 05, 2013 Rise Set
Actual Time 6:29 AM PST 5:59 PM PST
Civil Twilight 6:02 AM PST 6:26 PM PST
Nautical Twilight 5:31 AM PST 6:57 PM PST
Astronomical Twilight 5:00 AM PST 7:28 PM PST
Moon 1:44 AM PST (3/5) 11:45 AM PST (3/5)
Length of Visible Light 12h 24m
Length of Day
11h 30m
Last Quarter, 39% of the Moon is Illuminated
Mar 5
Last Quarter
Mar 11
New
Mar 19
First Quarter
Mar 27
Full
Apr 2
Last Quarter

Hourly Weather History & Observations

Time (PST) Temp. Windchill Dew Point Humidity Pressure Visibility Wind Dir Wind Speed Gust Speed Precip Events Conditions
12:52 AM 41.0 °F 35.8 °F 32.0 °F 70% 29.98 in 10.0 mi SSE 8.1 mph - N/A   Overcast
1:38 AM 41.0 °F 35.8 °F 32.0 °F 70% 30.05 in 10.0 mi SSE 8.1 mph 19.6 mph N/A   Partly Cloudy
1:52 AM 39.9 °F 34.5 °F 32.0 °F 73% 29.96 in 10.0 mi SSE 8.1 mph 18.4 mph N/A   Clear
2:52 AM 39.9 °F 33.9 °F 33.1 °F 77% 29.94 in 10.0 mi SSE 9.2 mph 23.0 mph N/A   Partly Cloudy
3:06 AM 39.2 °F 32.0 °F 33.8 °F 81% 30.02 in 10.0 mi SSE 11.5 mph - N/A   Mostly Cloudy
3:52 AM 39.9 °F 33.9 °F 32.0 °F 73% 29.94 in 10.0 mi South 9.2 mph 17.3 mph N/A   Overcast
4:52 AM 39.9 °F 33.4 °F 34.0 °F 79% 29.95 in 10.0 mi South 10.4 mph - N/A   Overcast
5:14 AM 39.2 °F 32.5 °F 35.6 °F 87% 30.02 in 10.0 mi SSE 10.4 mph - N/A   Overcast
5:52 AM 39.9 °F 33.4 °F 36.0 °F 86% 29.95 in 10.0 mi South 10.4 mph - N/A   Overcast
6:52 AM 39.0 °F 31.0 °F 35.1 °F 86% 29.95 in 10.0 mi South 13.8 mph - N/A   Overcast
7:52 AM 39.0 °F 31.8 °F 36.0 °F 89% 29.97 in 10.0 mi South 11.5 mph - N/A   Overcast
8:52 AM 39.0 °F 31.0 °F 37.0 °F 93% 29.96 in 10.0 mi South 13.8 mph 20.7 mph N/A   Overcast
9:52 AM 39.0 °F 31.4 °F 37.0 °F 93% 29.96 in 10.0 mi South 12.7 mph - N/A   Overcast
10:02 AM 39.2 °F 30.8 °F 37.4 °F 93% 30.00 in 9.0 mi South 15.0 mph - N/A   Overcast
10:36 AM 39.2 °F 30.8 °F 37.4 °F 93% 29.99 in 10.0 mi South 15.0 mph 20.7 mph N/A   Overcast
10:52 AM 41.0 °F 32.2 °F 36.0 °F 82% 29.94 in 10.0 mi SSE 18.4 mph 25.3 mph N/A   Overcast
11:52 AM 42.1 °F 34.2 °F 36.0 °F 79% 29.91 in 10.0 mi South 16.1 mph 25.3 mph N/A   Overcast
12:52 PM 42.1 °F 34.9 °F 37.0 °F 82% 29.88 in 10.0 mi South 13.8 mph 24.2 mph N/A   Overcast
1:24 PM 42.8 °F 35.4 °F 37.4 °F 81% 29.93 in 10.0 mi South 15.0 mph 26.5 mph N/A   Overcast
1:52 PM 42.1 °F 35.2 °F 36.0 °F 79% 29.87 in 10.0 mi South 12.7 mph 28.8 mph N/A   Overcast
2:52 PM 39.9 °F 31.4 °F 36.0 °F 86% 29.86 in 10.0 mi South 16.1 mph 25.3 mph N/A   Overcast
3:14 PM 39.2 °F 30.2 °F 35.6 °F 87% 29.90 in 10.0 mi South 17.3 mph 21.9 mph N/A   Overcast
3:37 PM 39.2 °F 30.2 °F 35.6 °F 87% 29.90 in 10.0 mi South 17.3 mph 25.3 mph N/A   Overcast
3:52 PM 39.0 °F 30.3 °F 35.1 °F 86% 29.86 in 10.0 mi South 16.1 mph 25.3 mph N/A   Overcast
4:13 PM 37.4 °F 29.3 °F 35.6 °F 93% 29.90 in 10.0 mi South 12.7 mph 19.6 mph N/A   Overcast
4:52 PM 37.0 °F 31.0 °F 33.1 °F 86% 29.85 in 10.0 mi SSW 8.1 mph - N/A   Overcast
5:08 PM 35.6 °F 29.9 °F 33.8 °F 93% 29.89 in 10.0 mi South 6.9 mph - N/A   Overcast
5:52 PM 36.0 °F 30.3 °F 33.1 °F 89% 29.84 in 10.0 mi SSE 6.9 mph - N/A   Overcast
6:08 PM 35.6 °F 30.7 °F 33.8 °F 93% 29.86 in 10.0 mi SSE 5.8 mph - N/A   Mostly Cloudy
6:52 PM 36.0 °F 28.5 °F 34.0 °F 93% 29.82 in 10.0 mi SSE 10.4 mph 18.4 mph N/A   Overcast
7:17 PM 35.6 °F 27.1 °F 33.8 °F 93% 29.85 in 10.0 mi SSE 12.7 mph 23.0 mph N/A   Overcast
7:52 PM 36.0 °F 26.7 °F 33.1 °F 89% 29.82 in 10.0 mi South 15.0 mph - N/A   Overcast
8:37 PM 35.6 °F 26.6 °F 33.8 °F 93% 29.85 in 10.0 mi South 13.8 mph 21.9 mph N/A   Overcast
8:52 PM 35.1 °F 25.9 °F 33.1 °F 92% 29.83 in 10.0 mi South 13.8 mph 17.3 mph N/A   Overcast
9:28 PM 35.6 °F 27.5 °F 32.0 °F 87% 29.84 in 10.0 mi South 11.5 mph 18.4 mph N/A   Overcast
9:52 PM 35.1 °F 25.9 °F 32.0 °F 89% 29.81 in 10.0 mi SSE 13.8 mph 21.9 mph N/A   Overcast
10:16 PM 35.6 °F 25.5 °F 32.0 °F 87% 29.83 in 10.0 mi South 17.3 mph 24.2 mph N/A   Overcast
10:52 PM 35.1 °F 25.2 °F 33.1 °F 92% 29.79 in 5.0 mi South 16.1 mph 24.2 mph 0.00 in Snow Light Snow
11:15 PM 33.8 °F 22.2 °F 32.0 °F 93% 29.82 in 1.8 mi South 20.7 mph 32.2 mph 0.00 in Snow Light Snow
11:22 PM 33.8 °F 22.2 °F 32.0 °F 93% 29.82 in 2.0 mi South 20.7 mph 29.9 mph 0.00 in Snow Light Snow
11:32 PM 33.8 °F 21.9 °F 32.0 °F 93% 29.82 in 6.0 mi SSE 21.9 mph 29.9 mph 0.00 in Snow Light Snow
11:52 PM 34.0 °F 22.7 °F 30.9 °F 89% 29.78 in 8.0 mi SSE 19.6 mph 28.8 mph 0.00 in Snow Light Snow